Regional Weather Roundup
Issued by NWS Newport/Morehead, NC

Current Version | Previous Version | Graphics & Text | Print | Product List | Glossary On
Versions: 1 2 3 4 5 6 7 8 9 10 11 12 13 14 15 16 17 18 19 20 21 22 23 24 25 26 27 28 29 30 31 32 33 34 35 36 37 38 39 40 41 42 43 44 45 46 47 48 49 50
000 ASUS42 KMHX 242025 RWRMHX WEATHER ROUNDUP FOR EASTERN NORTH CAROLINA NATIONAL WEATHER SERVICE NEWPORT/MOREHEAD CITY NC 400 PM EDT FRI MAR 24 2017 NOTE: "FAIR" INDICATES FEW OR NO CLOUDS BELOW 12,000 FEET WITH NO SIGNIFICANT WEATHER AND/OR OBSTRUCTIONS TO VISIBILITY NCZ015>017-031-032-045>047-102-103-242100- NORTH COAST CITY SKY/WX TMP DP RH WIND PRES REMARKS EDENTON MOSUNNY 70 44 39 SW9 30.39F ELIZABETH CITY SUNNY 69 43 38 SW18G25 30.38F KITTY HAWK NOT AVBL MANTEO SUNNY 62 47 58 SW10 30.41F $$ NCZ045>047-081-094-103-104-242100- CENTRAL COAST CITY SKY/WX TMP DP RH WIND PRES REMARKS FRISCO SUNNY 67 50 54 SW8 30.44F $$ NCZ095-097-098-100-101-242100- SOUTHERN COAST CITY SKY/WX TMP DP RH WIND PRES REMARKS BEAUFORT SUNNY 69 50 50 S14 30.44F CEDAR ISLAND NOT AVBL JACKSONVILLE SUNNY 69 47 45 S13G23 30.42F PINEY ISLAND PTCLDY N/A N/A N/A SW14G23 30.42F WILMINGTON SUNNY 70 49 47 S14G23 30.42F $$ NCZ011>013-027>030-043-044-078>080-089-090>093-098-242100- COASTAL PLAIN CITY SKY/WX TMP DP RH WIND PRES REMARKS AHOSKIE N/A 68 46 44 SW7 30.37F CLINTON MOSUNNY 72 47 40 SW7G24 30.40F ELIZABETHTOWN MOSUNNY 73 44 36 S7 30.40F GOLDSBORO PTSUNNY 73 43 34 SW9 30.38F GREENVILLE PTSUNNY 72 45 37 W12G22 30.39F HAVELOCK SUNNY 68 46 45 SW10G25 30.43F KENANSVILLE SUNNY 73 43 33 SW7G18 30.40F KINSTON PTSUNNY 72 41 33 W9G16 30.40F NEW BERN PTSUNNY 70 47 43 S13G21 30.42F RICHLANDS PTSUNNY 72 49 44 S16 30.41F ROCKY MOUNT CLOUDY 68 47 46 SW12 30.39F WASHINGTON MOSUNNY 70 44 38 SW13 30.39F WHITEVILLE MOSUNNY 72 44 36 S10G20 30.41F $$ AMZ130-135-150-152-154-156-158-170-250-252-270-ANZ085-086-088-633-658-670-242100- MARINE OBSERVATIONS STATION/POSITION TIME TEMP WIND PRES WAVE SWELL AIR SEA DIR/SP/G HT/PER HT/PER (UTC) (F) (DEG/KT/KT) (MB) (FT/S) (FT/S) CHESAPEAKE LIGHT NOT AVBL 64 E VA BEACH 1950 53 51 190/ 14/ 16 1029.0 3/11 2/11 DUCK 2000 64 48 210/ 10/ 15 1028.6 2 E DUCK 2000 52 N/A 2/ 8 2/11 OREGON INLET 2000 57 51 190/ 13/ 16 1030.1 13E OREGON INLT NOT AVBL HATTERAS CG 2000 63 53 210/ 9/ 12 1030.3 DIAMOND BUOY 1950 65 75 210/ 16/ 21 1030.7 4/10 3/10 CAPE LOOKOUT 2000 66 200/ 13/ 16 1030.4 BEAUFORT LAB 2000 64 51 200/ 11/ 13 1029.7 30 SE NEW RVR IN 2008 66 200/ 10/ 14 1030.8 30 SE NEW RVR IN 2013 69 N/A 3/ 8 27 SE WRIGHTSVLE 2008 65 63 160/ 10/ 14 1029.8 5 SE WRIGHTSVLE 2008 62 58 160/ 4/ 6 1030.6 225 S CAPE HAT 1950 64 74 70/ 16/ 19 1031.4 5/10 3/10 41 SE CHARLESTON 1950 69 72 140/ 12/ 16 1029.7 4/ 7 3/ 7 $$

USA.gov is the U.S. government's official web portal to all federal, state and local government web resources and services.